Regional Weather Roundup
Issued by NWS

Home | Current Version | Previous Version | Graphics & Text | Print | Product List | Glossary On
Versions: 1 2 3 4 5 6 7 8 9 10 11 12 13 14 15 16 17 18 19 20 21 22 23 24 25 26 27 28 29 30 31 32 33 34 35 36 37 38 39 40 41 42 43 44 45 46 47 48 49 50
000
ASUS43 KLOT 291103
RWRIL

ILLINOIS REGIONAL WEATHER ROUNDUP
NATIONAL WEATHER SERVICE CHICAGO/ROMEOVILLE IL
600 AM CDT FRI APR 29 2016

NOTE: "FAIR" INDICATES FEW OR NO CLOUDS BELOW 12,000 FEET WITH NO
SIGNIFICANT WEATHER AND/OR OBSTRUCTIONS TO VISIBILITY.

* THESE STATIONS ARE NOT UNDER NWS QUALITY CONTROL. THEY ALSO MAY NOT
  REPORT WEATHER SUCH AS PRECIPITATION OR FOG.

ILZ001-002-007-009-015-016-024-291200-
NORTHWEST ILLINOIS

CITY           SKY/WX    TMP DP  RH WIND       PRES   REMARKS
MOLINE         CLOUDY    46  42  86 NW7       30.10R FOG
STERLING*      CLOUDY    43  41  93 N6        30.11R
$$

ILZ003-004-008-010-011-017-018-291200-
NORTH CENTRAL ILLINOIS

CITY           SKY/WX    TMP DP  RH WIND       PRES   REMARKS
ROCKFORD       CLOUDY    42  39  89 N8        30.10R
FREEPORT*      CLOUDY    40  38  93 N6        30.11R
DE KALB*       CLOUDY    42  40  95 N8        30.07R FOG
$$

ILZ005-006-012>014-019>023-291200-
NORTHEAST ILLINOIS

CITY           SKY/WX    TMP DP  RH WIND       PRES   REMARKS
CHICAGO-OHARE  CLOUDY    42  41  96 N7        30.04R FOG
CHICAGO-MIDWAY CLOUDY    45  41  86 NW10      30.05R FOG
AURORA         CLOUDY    44  41  89 NW8       30.07R
LANSING*       CLOUDY    45  43  93 CALM      30.04R FOG
WAUKEGAN       CLOUDY    40  39  97 N6        30.05R FOG
DUPAGE AIRPORT CLOUDY    43  39  86 N7        30.05R
WHEELING       CLOUDY    42  40  92 N7        30.06R FOG
NORTHERLY ISL    N/A     43  40  89 NW7         N/A
NORTHERLY ISL    N/A     43  40  89 NW7         N/A
$$

LMZ740>746-291200-
SOUTHERN LAKE MICHIGAN

STATION/POSITION SKY/WX   TEMP    WIND        PRES    VSBY  WAVE
                          AIR SEA DIR/SP/G                  HT/PER
                          (F)     (DEG/KT/KT) (MB)    (MI)  (FT/S)
SOUTHERN BUOY              40 40   40/ 10/ 10 1017.1          1/ 3
HARRISON CRIB              43     340/ 17/ 18   N/A
BURNHAM HARBOR             44     320/  7/ 10   N/A
CALUMET HARBOR             44     320/  3/  7 1016.1R
BURNS HARBOR               43     320/ 10/ 13 1017.3R
MICHIGAN CITY              42     250/  4/  5   N/A
ST. JOSEPH                 46 47  250/  6/  8   N/A           1/ 4
$$

ILZ025>027-034>036-040-047-049-050-058-095>099-291200-
WEST-CENTRAL ILLINOIS

CITY           SKY/WX    TMP DP  RH WIND       PRES   REMARKS
QUINCY         CLOUDY    50  47  89 N7        30.06F
MACOMB*        CLOUDY    49  49  97 N8        30.08F
$$

ILZ028>032-037-038-041>044-048-051>054-059>061-291200-
CENTRAL ILLINOIS

CITY           SKY/WX    TMP DP  RH WIND       PRES   REMARKS
BLOOMINGTON    FOG       50  50 100 N8        30.07R VSB 1/4
DECATUR        PTCLDY    51  47  86 W5        30.06R
PEORIA         CLOUDY    50  47  89 N6        30.07R FOG
SPRINGFIELD    CLEAR     49  46  90 NW5       30.05F
TAYLORVILLE    NOT AVBL
$$

ILZ033-039-045-046-055>057-062-063-291200-
EAST-CENTRAL ILLINOIS

CITY           SKY/WX    TMP DP  RH WIND       PRES   REMARKS
CHAMPAIGN      CLEAR     46  45  96 SW5       30.05R
$$

ILZ079-100>102-291200-
SOUTHWEST ILLINOIS

CITY           SKY/WX    TMP DP  RH WIND       PRES   REMARKS
ALTON          CLOUDY    51  48  89 NW3       30.05F
BELLEVILLE     CLOUDY    54  52  93 N3        30.03F
CAHOKIA*       CLOUDY    54  48  80 N7        30.04F
SPARTA*        MOCLDY    51  49  92 CALM      30.04F
$$

ILZ064>066-069>071-074>076-080>082-084>086-088>090-092>094-291200-
SOUTH-CENTRAL ILLINOIS

CITY           SKY/WX    TMP DP  RH WIND       PRES   REMARKS
CARBONDALE     PTCLDY    51  49  92 NE3       30.03F
MT. VERNON     CLOUDY    48  45  87 CALM      30.05F
SALEM*         PTCLDY    52  50  92 CALM      30.05F
$$

ILZ067-068-072-073-078-083-087-091-291200-
SOUTHEAST ILLINOIS

CITY           SKY/WX    TMP DP  RH WIND       PRES   REMARKS
LAWRENCEVILLE  CLOUDY    51  50  96 CALM      30.07R
FLORA*         CLOUDY    53  50  89 CALM      30.06S
HARRISBURG*    PTCLDY    52  51  93 CALM      30.05F
ROBINSON*      CLOUDY    46  46 100 CALM      30.07R
$$

ABBREVIATIONS USED IN REMARKS
   TC - TEMPERATURE IN CELSIUS
  WCI - WIND CHILL INDEX
   HX - HEAT INDEX
  VSB - VISIBILITY
$$





USA.gov is the U.S. government's official web portal to all federal, state and local government web resources and services.